Location: Albany
(35.0170°S, 117.8920°E)
Time: 11:20:29
(UTC+08:00)

S-56A Canister/Altair - Pass Details

Date: 29 January 2021
Orbit: 631 x 2501 km, 38.9° (Epoch: 02 March)

Event Time Altitude Azimuth Distance (km) Brightness Sun altitude
Rises 19:20:43 0° 248° (WSW) 6,194 16.4 -1.3°
Reaches altitude 10° 19:25:15 10° 255° (WSW) 5,128 13.7 -2.2°
Maximum altitude 19:38:02 38° 315° (NW) 2,946 10.7 -4.6°
Drops below altitude 10° 19:47:59 10° 18° (NNE) 3,984 10.8 -6.4°
Sets 19:51:04 0° 26° (NNE) 4,718 11.1 -7.0°
